Weather History for Cleveland, OH

Change the Weather History Date:

Friday, June 28, 2013

  Actual Average Record
Temperature  
Mean Temperature 72 °F 72 °F  
Max Temperature 80 °F 82 °F 101 °F (1944)
Min Temperature 63 °F 63 °F 49 °F (1988)
Degree Days  
Heating Degree Days 0 0  
Month to date heating degree days 39 41  
Since 1 June heating degree days 39 41  
Since 1 July heating degree days 5809 5761  
Cooling Degree Days 7 8  
Month to date cooling degree days 154 151  
Year to date cooling degree days 268 210  
Since 1 June cooling degree days 154 151  
Growing Degree Days 22 (Base 50)    
Moisture  
Dew Point 64 °F    
Average Humidity 74    
Maximum Humidity 93    
Minimum Humidity 54    
Precipitation  
Precipitation 0.06 in 0.11 in 2.34 in (1957)
Month to date precipitation 7.59 3.21  
Year to date precipitation 20.18 18.35  
Snow  
Snow 0.00 in 0.00 in - ()
Month to date snowfall 0.0 0.0  
Since 1 June snowfall 0.0 0.0  
Since 1 July snowfall 51.7 68.1  
Snow Depth 0.00 in    
Sea Level Pressure  
Sea Level Pressure 29.59 in    
Wind  
Wind Speed 7 mph (WSW)    
Max Wind Speed 16 mph    
Max Gust Speed 18 mph    
Visibility 7 miles    
Events Fog , Rain , Thunderstorm    
T = Trace of Precipitation, MM = Missing Value Source: NWS Daily Summary

Daily Weather History Graph

Daily Weather History Graph

Search for Another Location

Airport:

Trip Planner

Search our weather history database for the weather conditions in past years. The results will help you decide how hot, cold, wet, or windy it might be!

Date:

Astronomy

Jun. 28, 2013 Rise Set
Actual Time 5:56 AM EDT 9:05 PM EDT
Civil Twilight 5:22 AM EDT 9:38 PM EDT
Nautical Twilight 4:39 AM EDT 10:22 PM EDT
Astronomical Twilight 3:47 AM EDT 11:13 PM EDT
Moon No Moon Rise 12:06 PM EDT (6/28)
Length of Visible Light 16h 16m
Length of Day
15h 08m
Waning Gibbous, 66% of the Moon is Illuminated
Jun 28
Waning Gibbous
Jun 30
Last Quarter
Jul 8
New
Jul 15
First Quarter
Jul 22
Full

Hourly Weather History & Observations

Time (EDT) Temp. Dew Point Humidity Pressure Visibility Wind Dir Wind Speed Gust Speed Precip Events Conditions
12:51 AM 69.1 °F 66.0 °F 90% 29.64 in 6.0 mi Calm Calm - N/A   Scattered Clouds
1:51 AM 69.1 °F 66.0 °F 90% 29.65 in 8.0 mi Calm Calm - N/A   Mostly Cloudy
1:54 AM 69.1 °F 66.0 °F 90% 29.66 in 8.0 mi Calm Calm - N/A   Mostly Cloudy
2:51 AM 66.9 °F 64.0 °F 90% 29.65 in 5.0 mi WSW 4.6 mph - N/A   Scattered Clouds
3:51 AM 66.0 °F 64.0 °F 93% 29.63 in 5.0 mi Calm Calm - N/A   Scattered Clouds
4:32 AM 64.9 °F 63.0 °F 93% 29.63 in 4.0 mi WSW 4.6 mph - N/A   Scattered Clouds
4:37 AM 64.9 °F 63.0 °F 93% 29.63 in 1.5 mi WSW 3.5 mph - N/A   Scattered Clouds
4:51 AM 64.9 °F 63.0 °F 93% 29.61 in 1.0 mi SW 3.5 mph - N/A   Scattered Clouds
5:31 AM 66.0 °F 64.0 °F 93% 29.63 in 1.2 mi Calm Calm - N/A   Overcast
5:51 AM 64.9 °F 63.0 °F 93% 29.61 in 1.2 mi SSW 3.5 mph - N/A   Overcast
6:32 AM 66.0 °F 64.0 °F 93% 29.62 in 0.5 mi SW 3.5 mph - N/A Fog Fog
6:42 AM 66.0 °F 64.0 °F 93% 29.62 in 0.2 mi SSW 3.5 mph - N/A Fog Fog
6:51 AM 66.0 °F 64.0 °F 93% 29.61 in 0.2 mi SW 4.6 mph - N/A Fog Fog
7:39 AM 66.9 °F 64.9 °F 93% 29.61 in 0.5 mi SW 5.8 mph - N/A Fog Fog
7:51 AM 66.9 °F 64.9 °F 93% 29.60 in 0.5 mi SW 4.6 mph - N/A Fog Fog
8:08 AM 68.0 °F 66.0 °F 93% 29.61 in 2.0 mi SW 3.5 mph - N/A   Overcast
8:20 AM 68.0 °F 66.0 °F 93% 29.61 in 3.0 mi West 3.5 mph - N/A   Overcast
8:51 AM 70.0 °F 66.9 °F 90% 29.60 in 7.0 mi Variable 3.5 mph - N/A   Mostly Cloudy
8:58 AM 70.0 °F 66.9 °F 90% 29.61 in 8.0 mi SW 4.6 mph - N/A   Mostly Cloudy
9:35 AM 72.0 °F 66.9 °F 84% 29.60 in 10.0 mi West 5.8 mph - N/A   Mostly Cloudy
9:51 AM 75.0 °F 66.9 °F 76% 29.58 in 10.0 mi West 6.9 mph - N/A   Mostly Cloudy
10:42 AM 75.9 °F 64.9 °F 69% 29.59 in 10.0 mi West 10.4 mph - N/A   Mostly Cloudy
10:51 AM 75.9 °F 64.9 °F 69% 29.58 in 10.0 mi West 9.2 mph - N/A   Mostly Cloudy
11:51 AM 77.0 °F 64.9 °F 66% 29.57 in 10.0 mi WNW 10.4 mph - N/A   Mostly Cloudy
12:51 PM 78.1 °F 63.0 °F 60% 29.57 in 10.0 mi NW 9.2 mph - N/A   Mostly Cloudy
1:51 PM 78.1 °F 62.1 °F 58% 29.55 in 10.0 mi WNW 10.4 mph 18.4 mph N/A   Scattered Clouds
2:51 PM 78.1 °F 61.0 °F 56% 29.55 in 10.0 mi NW 16.1 mph - N/A   Scattered Clouds
3:51 PM 75.9 °F 61.0 °F 60% 29.55 in 10.0 mi NNW 11.5 mph - N/A   Scattered Clouds
4:12 PM 73.9 °F 64.9 °F 73% 29.58 in 6.0 mi WNW 12.7 mph 23.0 mph 0.00 in Rain , Thunderstorm Light Thunderstorms and Rain
4:34 PM 69.1 °F 63.0 °F 81% 29.57 in 10.0 mi West 8.1 mph - 0.02 in Rain , Thunderstorm Light Thunderstorms and Rain
4:51 PM 69.1 °F 64.0 °F 84% 29.57 in 10.0 mi West 6.9 mph - 0.02 in   Overcast
5:51 PM 70.0 °F 64.9 °F 84% 29.55 in 10.0 mi West 5.8 mph - 0.04 in   Mostly Cloudy
6:51 PM 73.9 °F 62.1 °F 66% 29.55 in 10.0 mi WNW 8.1 mph - N/A   Mostly Cloudy
7:51 PM 72.0 °F 60.1 °F 66% 29.57 in 10.0 mi WNW 9.2 mph - N/A   Mostly Cloudy
8:51 PM 68.0 °F 57.9 °F 70% 29.57 in 10.0 mi WSW 11.5 mph - N/A   Mostly Cloudy
9:51 PM 64.0 °F 57.9 °F 80% 29.57 in 10.0 mi WSW 6.9 mph - N/A   Mostly Cloudy
10:51 PM 64.0 °F 59.0 °F 84% 29.58 in 10.0 mi SW 4.6 mph - N/A   Mostly Cloudy
11:51 PM 63.0 °F 60.1 °F 90% 29.57 in 10.0 mi SW 6.9 mph - N/A   Scattered Clouds